Tracking 29892 objects as of 21-Nov-2024
HD Live streaming from Space Station
objects crossing your sky now

THOR ABLESTAR DEB

Track THOR ABLESTAR DEB now!
10-day predictions


NORAD ID: 956
Int'l Code: 1964-083B
Perigee: 1,000.4 km
Apogee: 1,033.8 km
Inclination: 89.9 °
Period: 105.3 minutes
Semi major axis: 7388 km
RCS: 0.0743 m2 (small)
Launch date: December 13, 1964
Source: United States (US)
Launch site: AIR FORCE WESTERN TEST RANGE (AFWTR)

Note: This is SATELLITE DEBRIS
Your satellite tracking list
Your tracking list is empty




NASA's NSSDC Master Catalog

Two Line Element Set (TLE):
1 00956U 64083B   24325.04576182  .00000507  00000-0  59365-3 0  9993
2 00956  89.9369 172.7849 0022551 291.4909 221.6445 13.67112853977704
Source of the keplerian elements: AFSPC